• In Lithuania
  • List of Countries
  • For 7 days
  • Water Temperature
  • Satellite Maps
  • Weather Map
  • Weather Widgets
  • user-avatar
    Login

    Hourly Weather Nowe Skalmierzyce

    Today, 12 December, Tuesday

    Time Temperature Precipitation Wind Pressure Humidity
    00:00 +7°C° 0 mm 5 mps 729 mmHg 85%
    01:00 +7°C° 0 mm 4 mps 730 mmHg 85%
    02:00 +7°C° 0 mm 4 mps 730 mmHg 85%
    03:00 +7°C° 0 mm 5 mps 731 mmHg 84%
    04:00 +7°C° 0 mm 5 mps 731 mmHg 84%
    05:00 +7°C° 0 mm 5 mps 732 mmHg 84%
    06:00 +7°C° 0 mm 6 mps 732 mmHg 84%
    07:00 +7°C° 0 mm 6 mps 733 mmHg 84%
    08:00 +7°C° 0 mm 6 mps 734 mmHg 79%
    09:00 +6°C° 0 mm 7 mps 735 mmHg 75%
    10:00 +6°C° 0 mm 7 mps 735 mmHg 70%
    11:00 +6°C° 0 mm 8 mps 736 mmHg 65%
    12:00 +6°C° 0 mm 9 mps 737 mmHg 61%
    13:00 +6°C° 0 mm 9 mps 739 mmHg 56%
    14:00 +5°C° 0 mm 9 mps 740 mmHg 57%
    15:00 +4°C° 0 mm 8 mps 741 mmHg 58%
    16:00 +2°C° 0 mm 8 mps 742 mmHg 59%
    17:00 +2°C° 0 mm 8 mps 742 mmHg 59%
    18:00 +1°C° 0 mm 8 mps 743 mmHg 59%
    19:00 +1°C° 0 mm 8 mps 744 mmHg 59%
    20:00 +1°C° 0 mm 8 mps 745 mmHg 61%
    21:00 0°C° 0 mm 8 mps 745 mmHg 62%
    22:00 0°C° 0 mm 8 mps 746 mmHg 63%
    23:00 0°C° 0 mm 7 mps 747 mmHg 67%

    Tomorrow, 13 December, Wednesday

    Time Temperature Precipitation Wind Pressure Humidity
    00:00 -1°C° 0 mm 6 mps 747 mmHg 70%
    01:00 -1°C° 0 mm 6 mps 748 mmHg 74%
    02:00 0°C° 0 mm 5 mps 748 mmHg 77%
    03:00 -1°C° 0 mm 4 mps 749 mmHg 81%
    04:00 -1°C° 0 mm 4 mps 749 mmHg 84%
    05:00 -2°C° 0 mm 4 mps 749 mmHg 86%
    06:00 -1°C° 0 mm 3 mps 750 mmHg 87%
    07:00 -1°C° 0 mm 3 mps 750 mmHg 89%
    08:00 -1°C° 0 mm 3 mps 750 mmHg 84%
    09:00 -1°C° 0 mm 4 mps 750 mmHg 80%
    10:00 -1°C° 0 mm 4 mps 750 mmHg 76%
    11:00 0°C° 0 mm 4 mps 750 mmHg 72%
    12:00 +1°C° 0 mm 4 mps 749 mmHg 69%
    13:00 +1°C° 0 mm 4 mps 749 mmHg 65%
    14:00 0°C° 0 mm 4 mps 748 mmHg 67%
    15:00 0°C° 0 mm 4 mps 747 mmHg 69%
    16:00 -1°C° 0 mm 4 mps 747 mmHg 71%
    17:00 -1°C° 0 mm 5 mps 746 mmHg 70%
    18:00 -1°C° 0 mm 5 mps 746 mmHg 70%
    19:00 -2°C° 0 mm 6 mps 745 mmHg 69%
    20:00 -2°C° 0 mm 6 mps 744 mmHg 67%
    21:00 -2°C° 0 mm 6 mps 743 mmHg 65%
    22:00 -2°C° 0 mm 7 mps 742 mmHg 63%
    23:00 -1°C° 0.1 mm 7 mps 741 mmHg 62%

    Day after tomorrow, 14 December, Thursday

    Time Temperature Precipitation Wind Pressure Humidity
    00:00 -1°C° 0.1 mm 7 mps 740 mmHg 61%
    01:00 0°C° 0.1 mm 8 mps 740 mmHg 60%
    02:00 0°C° 0.1 mm 8 mps 738 mmHg 62%
    03:00 0°C° 0.1 mm 8 mps 737 mmHg 65%
    04:00 +1°C° 0.1 mm 8 mps 736 mmHg 67%
    05:00 +1°C° 0.3 mm 8 mps 736 mmHg 67%
    06:00 +1°C° 0.3 mm 8 mps 735 mmHg 68%
    07:00 +1°C° 0.3 mm 8 mps 735 mmHg 68%
    08:00 +2°C° 0.4 mm 8 mps 735 mmHg 70%
    09:00 +2°C° 0.4 mm 8 mps 735 mmHg 71%
    10:00 +2°C° 0.4 mm 8 mps 735 mmHg 72%
    11:00 +4°C° 0.1 mm 8 mps 735 mmHg 69%
    12:00 +4°C° 0.1 mm 8 mps 734 mmHg 65%
    13:00 +3°C° 0.1 mm 9 mps 734 mmHg 61%
    14:00 +2°C° 0 mm 8 mps 735 mmHg 59%
    15:00 +2°C° 0 mm 7 mps 735 mmHg 58%
    16:00 +1°C° 0 mm 6 mps 736 mmHg 56%
    17:00 +1°C° 0 mm 6 mps 736 mmHg 58%
    18:00 +1°C° 0 mm 6 mps 736 mmHg 59%
    19:00 0°C° 0 mm 5 mps 737 mmHg 60%
    20:00 0°C° 0 mm 5 mps 736 mmHg 61%
    21:00 0°C° 0 mm 5 mps 736 mmHg 61%
    22:00 0°C° 0 mm 5 mps 736 mmHg 62%
    23:00 0°C° 0.1 mm 4 mps 735 mmHg 66%

    15 December, Friday

    Time Temperature Precipitation Wind Pressure Humidity
    00:00 0°C° 0.1 mm 4 mps 734 mmHg 71%
    01:00 0°C° 0.1 mm 4 mps 733 mmHg 75%
    02:00 +1°C° 0.6 mm 5 mps 732 mmHg 77%
    03:00 +1°C° 0.6 mm 5 mps 731 mmHg 79%
    04:00 +2°C° 0.6 mm 6 mps 730 mmHg 81%
    05:00 +2°C° 0.6 mm 7 mps 731 mmHg 78%
    06:00 +1°C° 0.6 mm 8 mps 731 mmHg 75%
    07:00 +1°C° 0.6 mm 9 mps 731 mmHg 72%
    08:00 0°C° 0.1 mm 9 mps 732 mmHg 73%
    09:00 0°C° 0.1 mm 10 mps 733 mmHg 74%
    10:00 0°C° 0.1 mm 10 mps 734 mmHg 75%
    11:00 0°C° 0 mm 9 mps 734 mmHg 73%
    12:00 0°C° 0 mm 8 mps 735 mmHg 71%
    13:00 +1°C° 0 mm 6 mps 736 mmHg 69%
    14:00 +1°C° 0 mm 5 mps 736 mmHg 72%
    15:00 0°C° 0 mm 4 mps 736 mmHg 74%
    16:00 +1°C° 0 mm 3 mps 737 mmHg 77%
    17:00 +1°C° 0 mm 3 mps 737 mmHg 78%
    18:00 +1°C° 0 mm 3 mps 737 mmHg 79%
    19:00 0°C° 0 mm 4 mps 737 mmHg 80%
    20:00 -1°C° 0 mm 4 mps 737 mmHg 81%
    21:00 0°C° 0 mm 3 mps 737 mmHg 83%
    22:00 0°C° 0 mm 3 mps 737 mmHg 85%
    23:00 0°C° 0 mm 3 mps 737 mmHg 85%

    16 December, Saturday

    Time Temperature Precipitation Wind Pressure Humidity
    00:00 0°C° 0 mm 3 mps 737 mmHg 86%
    01:00 0°C° 0 mm 3 mps 737 mmHg 87%
    02:00 0°C° 0 mm 3 mps 737 mmHg 86%
    03:00 0°C° 0 mm 3 mps 737 mmHg 86%
    04:00 0°C° 0 mm 3 mps 737 mmHg 85%
    05:00 0°C° 0.4 mm 3 mps 737 mmHg 86%
    06:00 0°C° 0.4 mm 3 mps 738 mmHg 86%
    07:00 0°C° 0.4 mm 3 mps 738 mmHg 87%
    08:00 0°C° 0.1 mm 4 mps 739 mmHg 86%
    09:00 0°C° 0.1 mm 5 mps 739 mmHg 85%
    10:00 0°C° 0.1 mm 5 mps 739 mmHg 85%
    11:00 0°C° 0 mm 5 mps 740 mmHg 84%
    12:00 0°C° 0 mm 5 mps 740 mmHg 83%
    13:00 0°C° 0 mm 5 mps 740 mmHg 83%
    14:00 0°C° 0.2 mm 5 mps 741 mmHg 84%
    15:00 0°C° 0.2 mm 5 mps 741 mmHg 85%
    16:00 0°C° 0.2 mm 5 mps 742 mmHg 87%
    17:00 0°C° 0 mm 5 mps 742 mmHg 86%
    18:00 0°C° 0 mm 5 mps 743 mmHg 86%
    19:00 0°C° 0 mm 4 mps 743 mmHg 86%
    20:00 -1°C° 0 mm 4 mps 744 mmHg 87%
    21:00 -1°C° 0 mm 4 mps 744 mmHg 88%
    22:00 -1°C° 0 mm 4 mps 744 mmHg 89%
    23:00 -2°C° 0 mm 5 mps 744 mmHg 89%

    17 December, Sunday

    Time Temperature Precipitation Wind Pressure Humidity
    00:00 -2°C° 0 mm 5 mps 744 mmHg 90%
    01:00 -2°C° 0 mm 5 mps 745 mmHg 90%
    02:00 -2°C° 0 mm 5 mps 745 mmHg 89%
    03:00 -2°C° 0 mm 5 mps 745 mmHg 89%
    04:00 -2°C° 0 mm 5 mps 745 mmHg 88%
    05:00 -2°C° 0.1 mm 5 mps 745 mmHg 87%
    06:00 -2°C° 0.1 mm 5 mps 746 mmHg 86%
    07:00 -1°C° 0.1 mm 5 mps 746 mmHg 85%
    08:00 -2°C° 0.1 mm 6 mps 747 mmHg 85%
    09:00 -2°C° 0.1 mm 6 mps 747 mmHg 84%
    10:00 -2°C° 0.1 mm 6 mps 747 mmHg 83%
    11:00 -2°C° 0.1 mm 6 mps 748 mmHg 81%
    12:00 -2°C° 0.1 mm 6 mps 748 mmHg 79%
    13:00 -2°C° 0.1 mm 6 mps 748 mmHg 77%
    14:00 -2°C° 0 mm 6 mps 749 mmHg 78%
    15:00 -1°C° 0 mm 5 mps 749 mmHg 80%
    16:00 -1°C° 0 mm 5 mps 750 mmHg 81%
    17:00 -2°C° 0 mm 5 mps 750 mmHg 82%
    18:00 -2°C° 0 mm 5 mps 751 mmHg 84%
    19:00 -2°C° 0 mm 5 mps 751 mmHg 86%
    20:00 -2°C° 0 mm 5 mps 752 mmHg 87%
    21:00 -2°C° 0 mm 4 mps 752 mmHg 88%
    22:00 -2°C° 0 mm 4 mps 753 mmHg 89%
    23:00 -2°C° 0 mm 4 mps 753 mmHg 90%
    Show more